Location: Ch�tillon
(48.8024°N, 2.2935°E)
Time: 18:05:47
(UTC+00:00)

XW-2A - Pass Details

Date: 07 July 2022
Orbit: 396 x 406 km, 97.2° (Epoch: 10 August)

Event Time Altitude Azimuth Distance (km) Brightness Sun altitude
Exits shadow 20:46:58 - 171° (S) 1,766 ? -7.2°
Reaches altitude 10° 20:47:43 10° 172° (S) 1,439 ? -7.3°
Maximum altitude 20:50:47 73° 257° (WSW) 420 ? -7.6°
Drops below altitude 10° 20:53:53 10° 344° (NNW) 1,454 ? -8.0°
Sets 20:55:53 0° 346° (NNW) 2,319 ? -8.2°
